[[{"header":{"parameterUnit":"m.s-1","parameterCategory":1,"la1":30.2991,"la2":30.254,"lo1":-89.0895,"lo2":-89.0444,"dy":0.0017,"dx":0.0017,"nx":28,"ny":28,"refTime":"2025-11-04T03:00:00:Z","depth":0,"parameterNumber":2,"parameterNumberName":"U-component_of_WINDS"},"data":[0,0,0,0,0,0,0,0,0,0,0,0,0,0,0,0,0,0,0,0,0,0,0,0,0,0,0,0,0,0,0,0,0,0,0,0,0,0,0,0,0,0,0,0,0,0,0,0,0,0,0,0,0,0,0,0,0,0,-2.1132,-2.1132,0,-2.1181,-2.1182,-2.1183,-2.1072,-2.1068,-2.1065,-2.1062,-2.1114,-2.1118,-2.1123,0,0,0,0,0,0,0,0,0,0,0,0,0,-2.0941,-2.0945,-2.1132,-2.1132,-2.1133,-2.1181,-2.1182,-2.1183,-2.1073,-2.1068,-2.1064,-2.106,-2.1112,-2.1118,-2.1123,0,0,0,0,0,0,0,0,0,0,0,0,0,-2.1011,-2.0947,-2.1131,-2.1084,-2.108,-2.1181,-2.1182,-2.1183,-2.1074,-2.1068,-2.1063,-2.1058,-2.111,-2.1117,-2.1124,-2.1275,0,0,-2.1146,-2.1149,0,0,0,0,0,0,0,0,-2.1007,-2.1018,-2.109,-2.1087,-2.1083,-2.1115,-2.1134,-2.1214,-2.1075,-2.1076,-2.1061,-2.1055,-2.1119,-2.1125,-2.1146,-2.1277,-2.1279,-2.1146,-2.1151,-2.1154,-2.1156,0,0,0,0,0,0,0,-2.1003,-2.1015,-2.1151,-2.1091,-2.1087,-2.106,-2.1064,-2.1149,-2.1127,-2.1076,-2.1068,-2.1075,-2.1116,-2.1139,-2.1146,-2.128,-2.1146,-2.1153,-2.1157,-2.116,-2.1537,-2.1542,0,0,0,0,0,0,-2.1004,-2.1012,-2.115,-2.1153,-2.1031,-2.1068,-2.1072,-2.111,-2.1125,-2.1123,-2.1079,-2.107,-2.113,-2.1138,-2.1148,-2.1325,-2.1154,-2.116,-2.1164,-2.1531,-2.1538,-2.1544,0,0,0,0,0,0,-2.1,-2.1017,-2.1148,-2.108,-2.1095,-2.1077,-2.112,-2.1114,-2.1137,-2.1128,-2.1124,-2.1108,-2.1126,-2.1138,-2.1244,-2.1325,-2.1164,-2.117,-2.1524,-2.1533,-2.1541,-2.1681,0,0,0,0,0,0,-2.0995,-2.1016,-2.1073,-2.1082,-2.1099,-2.1244,-2.1125,-2.1119,-2.115,-2.1137,-2.1154,-2.1151,-2.1123,-2.1234,-2.1251,-2.1332,-2.1175,-2.1517,-2.1528,-2.1538,-2.1669,-2.1694,-2.1715,0,0,0,0,0,-2.0989,-2.1111,-2.1077,-2.1094,-2.117,-2.1248,-2.1258,-2.1222,-2.1157,-2.1214,-2.1208,-2.1151,-2.1313,-2.1246,-2.1264,-2.1349,-2.1511,-2.1525,-2.1537,-2.1659,-2.1689,-2.1714,0,0,0,0,0,0,-2.1113,-2.1112,-2.1074,-2.1203,-2.1226,-2.123,-2.1301,-2.1255,-2.1298,-2.1285,-2.1238,-2.1243,-2.1358,-2.1363,-2.1288,-2.1494,-2.1401,-2.1419,-2.1488,-2.1516,-2.1538,-2.1535,-2.1181,0,0,0,0,0,-2.1155,-2.1219,-2.1214,-2.1329,-2.1342,-2.132,-2.1353,-2.1323,-2.1346,-2.1356,-2.1357,-2.1382,-2.1438,-2.1477,-2.1528,-2.1668,-2.1671,-2.1736,-2.1758,-2.1777,-2.1793,-2.1868,-2.1897,-2.1587,-2.1587,-2.1587,0,0,-2.1244,-2.1251,-2.1294,-2.1354,-2.1369,-2.1436,-2.1329,-2.1405,-2.1455,-2.1367,-2.1468,-2.147,-2.1494,-2.1618,-2.1673,-2.1626,-2.1879,-2.1793,-2.1808,-2.1814,-2.1884,-2.1914,-2.194,-2.1596,-2.1594,-2.1593,0,0,-2.144,-2.1451,-2.1548,-2.1565,-2.1589,-2.1572,-2.1596,-2.1606,-2.1604,-2.1703,-2.1639,-2.1697,-2.1795,-2.1816,-2.1839,-2.2041,-2.199,-2.2059,-2.2178,-2.2251,-2.2276,-2.2297,-2.2371,-2.2397,-2.2074,-2.2075,-2.2075,0,-2.1548,-2.1646,-2.1604,-2.1684,-2.1713,-2.1635,-2.1733,-2.1751,-2.1791,-2.1813,-2.1759,-2.188,-2.1891,-2.2019,-2.2068,-2.2089,-2.2115,-2.2058,-2.2276,-2.2297,-2.2316,-2.2386,-2.2413,-2.2083,-2.2082,-2.2081,-2.208,0,-2.1778,-2.1847,-2.1922,-2.1962,-2.1998,-2.2087,-2.2058,-2.21,-2.2067,-2.2056,-2.2159,-2.2169,-2.2221,-2.2248,-2.2217,-2.2372,-2.2342,-2.2283,-2.2189,-2.2355,-2.2419,-2.2446,-2.2095,-2.2092,-2.2089,-2.2087,0,0,-2.2056,-2.207,-2.2099,-2.2116,-2.2135,-2.2188,-2.2273,-2.2324,-2.2361,-2.239,-2.2461,-2.2545,-2.249,-2.2516,-2.2485,-2.255,-2.2711,-2.2482,-2.2482,-2.2526,-2.2884,-2.293,-2.2961,-2.2676,-2.2681,-2.2684,-2.2882,0,-2.2251,-2.2398,-2.2361,-2.2506,-2.257,-2.2497,-2.257,-2.2591,-2.2583,-2.2636,-2.2626,-2.2687,-2.2609,-2.2625,-2.2685,-2.2679,-2.2782,-2.2663,-2.2742,-2.2746,-2.2741,-2.2995,-2.3044,-2.323,-2.2907,-2.2911,-2.2914,0,-2.25,-2.2538,-2.269,-2.2699,-2.2724,-2.2791,-2.2834,-2.2886,-2.2907,-2.2896,-2.2925,-2.2881,-2.2965,-2.2868,-2.2983,-2.2904,-2.2933,-2.2935,-2.2941,-2.2949,-2.2842,-2.3012,-2.3288,-2.3317,-2.2953,-2.295,-2.2947,0,-2.269,-2.2779,-2.2882,-2.2898,-2.2911,-2.296,-2.2967,-2.2983,-2.3015,-2.3052,-2.3073,-2.312,-2.3146,-2.3183,-2.3153,-2.3085,-2.3274,-2.3174,-2.3269,-2.327,-2.3314,-2.3312,-2.3602,-2.333,-2.3329,-2.3329,-2.3328,0,-2.2913,-2.3009,-2.2967,-2.3031,-2.3136,-2.3092,-2.3198,-2.3196,-2.3211,-2.3273,-2.3211,-2.327,-2.3226,-2.3281,-2.3258,-2.3357,-2.3369,-2.3364,-2.3357,-2.3371,-2.3372,-2.3391,-2.3379,-2.3336,-2.3334,-2.3333,-2.3332,0,-2.3145,-2.312,-2.3227,-2.3229,-2.3232,-2.331,-2.3312,-2.3371,-2.3357,-2.3436,-2.3452,-2.3431,-2.3493,-2.3466,-2.3531,-2.3516,-2.3644,-2.3619,-2.3638,-2.3632,-2.3728,-2.372,-2.4043,-2.4083,-2.3783,-2.3786,-2.3788,0,-2.329,-2.3362,-2.3372,-2.3409,-2.3421,-2.3481,-2.3513,-2.3472,-2.3509,-2.3538,-2.3593,-2.3649,-2.3693,-2.3795,-2.3786,-2.3836,-2.3812,-2.3922,-2.382,-2.3831,-2.3816,-2.3813,-2.3821,-2.3943,-2.3947,-2.395,-2.3952,0,-2.3551,-2.3535,-2.3585,-2.363,-2.3671,-2.3704,-2.3733,-2.3766,-2.3726,-2.3771,-2.3833,-2.3867,-2.3933,-2.399,-2.4033,-2.404,-2.3991,-2.3983,-2.4008,-2.4025,-2.4033,-2.4031,-2.3696,-2.3977,-2.3975,-2.3973,-2.3971,-2.397,-2.3745,-2.3806,-2.3823,-2.388,-2.3896,-2.3924,-2.3979,-2.3972,-2.4024,-2.4074,-2.4046,-2.412,-2.4138,-2.4191,-2.4205,-2.4261,-2.4218,-2.4254,-2.4263,-2.4273,-2.4287,-2.4022,-2.4269,-2.4268,-2.4267,-2.4266,-2.4266,0,-2.4005,-2.4011,-2.4064,-2.4105,-2.415,-2.4097,-2.4126,-2.4167,-2.4232,-2.4253,-2.4296,-2.4368,-2.4423,-2.4417,-2.4468,-2.4514,-2.4492,-2.4529,-2.4526,-2.4529,-2.4321,-2.4296,-2.4545,-2.4545,-2.4545,-2.4545,-2.4545,-2.4545,-2.4145,-2.4246,-2.4232,-2.4339,-2.4345,-2.4416,-2.4437,-2.4462,-2.4478,-2.4561,-2.4606,-2.4602,-2.4612,-2.4662,-2.471,-2.4707,-2.4729,-2.4775,-2.4764,-2.4571,-2.4543,-2.4517,-2.4493,-2.478,-2.478,-2.4966,-2.4968,-2.4969]},{"header":{"parameterUnit":"m.s-1","parameterCategory":1,"la1":30.2991,"la2":30.254,"lo1":-89.0895,"lo2":-89.0444,"dy":0.0017,"dx":0.0017,"nx":28,"ny":28,"refTime":"2025-11-04T03:00:00:Z","depth":0,"parameterNumber":3,"parameterNumberName":"V-component_of_WINDS"},"data":[0,0,0,0,0,0,0,0,0,0,0,0,0,0,0,0,0,0,0,0,0,0,0,0,0,0,0,0,0,0,0,0,0,0,0,0,0,0,0,0,0,0,0,0,0,0,0,0,0,0,0,0,0,0,0,0,0,0,-3.8417,-3.8418,0,-3.8494,-3.8494,-3.8495,-3.8459,-3.8457,-3.8455,-3.8453,-3.8527,-3.8531,-3.8534,0,0,0,0,0,0,0,0,0,0,0,0,0,-3.8236,-3.8239,-3.8417,-3.8418,-3.8419,-3.8493,-3.8494,-3.8495,-3.8459,-3.8457,-3.8454,-3.8452,-3.8526,-3.853,-3.8535,0,0,0,0,0,0,0,0,0,0,0,0,0,-3.8313,-3.824,-3.8417,-3.841,-3.841,-3.8493,-3.8494,-3.8496,-3.846,-3.8457,-3.8454,-3.8451,-3.8524,-3.853,-3.8535,-3.8628,0,0,-3.8553,-3.8555,0,0,0,0,0,0,0,0,-3.8309,-3.832,-3.841,-3.8411,-3.8411,-3.8464,-3.8457,-3.854,-3.846,-3.8441,-3.8453,-3.845,-3.8508,-3.8515,-3.8535,-3.8632,-3.8635,-3.8553,-3.8557,-3.8559,-3.8561,0,0,0,0,0,0,0,-3.8304,-3.8317,-3.8447,-3.8412,-3.8412,-3.8402,-3.8409,-3.8473,-3.849,-3.8442,-3.844,-3.845,-3.8508,-3.853,-3.8537,-3.8636,-3.8553,-3.8558,-3.8561,-3.8564,-3.881,-3.8813,0,0,0,0,0,0,-3.8299,-3.8312,-3.8445,-3.845,-3.8352,-3.8407,-3.8416,-3.845,-3.8489,-3.8492,-3.8452,-3.8448,-3.8522,-3.853,-3.8539,-3.8649,-3.8559,-3.8564,-3.8567,-3.8807,-3.881,-3.8814,0,0,0,0,0,0,-3.8295,-3.8311,-3.8442,-3.838,-3.8396,-3.8414,-3.8452,-3.8453,-3.8475,-3.8496,-3.8498,-3.8472,-3.852,-3.8531,-3.8606,-3.8651,-3.8567,-3.8572,-3.8803,-3.8808,-3.8812,-3.887,0,0,0,0,0,0,-3.829,-3.831,-3.8347,-3.8382,-3.84,-3.8509,-3.8454,-3.8456,-3.8485,-3.848,-3.8516,-3.8519,-3.8518,-3.8598,-3.8612,-3.8657,-3.8576,-3.8799,-3.8805,-3.8811,-3.8864,-3.8876,-3.8886,0,0,0,0,0,-3.8284,-3.836,-3.8349,-3.8365,-3.8446,-3.8512,-3.8522,-3.8521,-3.8489,-3.8525,-3.8539,-3.8517,-3.8644,-3.8606,-3.8621,-3.8669,-3.8796,-3.8803,-3.881,-3.8859,-3.8874,-3.8886,0,0,0,0,0,0,-3.8329,-3.8364,-3.8353,-3.8442,-3.8475,-3.8506,-3.8551,-3.8537,-3.8578,-3.8572,-3.8568,-3.8576,-3.8653,-3.8669,-3.8625,-3.876,-3.8715,-3.8725,-3.8747,-3.8761,-3.8772,-3.8766,-3.8581,0,0,0,0,0,-3.835,-3.8402,-3.8429,-3.8505,-3.8522,-3.8534,-3.8563,-3.8559,-3.8592,-3.8605,-3.8624,-3.8655,-3.8701,-3.8732,-3.8776,-3.8866,-3.8872,-3.8907,-3.8918,-3.8927,-3.8935,-3.8982,-3.8997,-3.8837,-3.8837,-3.8837,0,0,-3.8392,-3.8418,-3.8451,-3.8515,-3.854,-3.8591,-3.8546,-3.8603,-3.8641,-3.8613,-3.8685,-3.87,-3.8734,-3.8817,-3.8854,-3.8832,-3.8981,-3.8936,-3.8943,-3.8947,-3.8991,-3.9006,-3.9019,-3.8842,-3.8841,-3.884,0,0,-3.8496,-3.8522,-3.8588,-3.8613,-3.8651,-3.8658,-3.8674,-3.8707,-3.8716,-3.8789,-3.8768,-3.8812,-3.8893,-3.8918,-3.8941,-3.9053,-3.9035,-3.9068,-3.9125,-3.9171,-3.9183,-3.9195,-3.9233,-3.9247,-3.9077,-3.9077,-3.9077,0,-3.8544,-3.8623,-3.8623,-3.8682,-3.8709,-3.8688,-3.8753,-3.8777,-3.8827,-3.8846,-3.8821,-3.8921,-3.8943,-3.9029,-3.9057,-3.9077,-3.9093,-3.9063,-3.9182,-3.9193,-3.9203,-3.924,-3.9254,-3.908,-3.908,-3.908,-3.9079,0,-3.8679,-3.8734,-3.8782,-3.8832,-3.8865,-3.8927,-3.8934,-3.8967,-3.8961,-3.897,-3.9043,-3.9068,-3.9116,-3.9136,-3.9131,-3.9222,-3.9207,-3.9182,-3.9137,-3.9222,-3.9256,-3.927,-3.9086,-3.9084,-3.9083,-3.9082,0,0,-3.8814,-3.8862,-3.8879,-3.8901,-3.8941,-3.8982,-3.9042,-3.909,-3.9118,-3.9153,-3.9201,-3.927,-3.9247,-3.9273,-3.9269,-3.931,-3.9394,-3.928,-3.928,-3.9299,-3.9494,-3.9511,-3.9528,-3.9383,-3.9385,-3.9388,-3.9491,0,-3.8919,-3.9025,-3.9026,-3.9123,-3.9172,-3.9152,-3.9203,-3.9232,-3.9242,-3.9284,-3.9295,-3.9343,-3.931,-3.9325,-3.9364,-3.9376,-3.9433,-3.9369,-3.9426,-3.9428,-3.9416,-3.9546,-3.9565,-3.9661,-3.9504,-3.9506,-3.9508,0,-3.9056,-3.9096,-3.9199,-3.923,-3.925,-3.9297,-3.934,-3.9381,-3.9413,-3.9417,-3.9446,-3.9436,-3.9495,-3.9449,-3.9528,-3.9484,-3.9507,-3.9517,-3.952,-3.9524,-3.9472,-3.9552,-3.9692,-3.9705,-3.9529,-3.9528,-3.9526,0,-3.9142,-3.9221,-3.9292,-3.9311,-3.935,-3.9383,-3.94,-3.9429,-3.9458,-3.9495,-3.9513,-3.9556,-3.9579,-3.9612,-3.9613,-3.958,-3.9693,-3.9647,-3.9696,-3.9696,-3.972,-3.9718,-3.9864,-3.9738,-3.9737,-3.9737,-3.9737,0,-3.9259,-3.9322,-3.9331,-3.9374,-3.9443,-3.9443,-3.951,-3.9524,-3.955,-3.9594,-3.9579,-3.9621,-3.9621,-3.9663,-3.9664,-3.9728,-3.9739,-3.9743,-3.9742,-3.9743,-3.9743,-3.9757,-3.975,-3.9741,-3.974,-3.9739,-3.9739,0,-3.9366,-3.9375,-3.945,-3.9481,-3.949,-3.9539,-3.9564,-3.9604,-3.9613,-3.9669,-3.9682,-3.9695,-3.9743,-3.9748,-3.9804,-3.9804,-3.9882,-3.9875,-3.9871,-3.987,-3.9918,-3.9912,-4.0077,-4.0097,-3.9959,-3.9961,-3.9962,0,-3.9439,-3.9487,-3.9522,-3.9552,-3.9571,-3.9618,-3.9647,-3.9648,-3.9678,-3.9717,-3.9752,-3.9799,-3.9836,-3.9914,-3.9927,-3.9969,-3.9962,-4.0017,-3.9968,-3.9967,-3.9961,-3.9957,-3.9961,-4.0026,-4.0027,-4.0028,-4.0029,0,-3.9567,-3.9569,-3.9612,-3.9657,-3.9692,-3.9726,-3.9758,-3.9783,-3.9787,-3.9821,-3.9871,-3.99,-3.9958,-4.0003,-4.0045,-4.006,-4.0045,-4.0045,-4.0058,-4.0059,-4.0054,-4.0056,-3.9895,-4.0041,-4.004,-4.0039,-4.0038,-4.0038,-3.9658,-3.9699,-3.973,-3.9778,-3.9803,-3.9833,-3.9872,-3.9885,-3.9927,-3.9974,-3.9972,-4.0026,-4.0055,-4.0109,-4.0127,-4.0169,-4.015,-4.017,-4.0174,-4.0179,-4.0183,-4.0049,-4.0176,-4.0176,-4.0176,-4.0175,-4.0175,0,-3.9784,-3.9803,-3.9847,-3.9893,-3.993,-3.9914,-3.9949,-3.998,-4.0029,-4.0057,-4.0094,-4.015,-4.0195,-4.0211,-4.0254,-4.0284,-4.0277,-4.0295,-4.0292,-4.0295,-4.0198,-4.0181,-4.0299,-4.0299,-4.0299,-4.0299,-4.0299,-4.0299,-3.9854,-3.9922,-3.9927,-4.0006,-4.0024,-4.0078,-4.0099,-4.0126,-4.0149,-4.0212,-4.0249,-4.026,-4.0283,-4.0328,-4.0367,-4.037,-4.0386,-4.0406,-4.0406,-4.0315,-4.0302,-4.029,-4.0275,-4.041,-4.041,-4.0499,-4.05,-4.0501]}]]